Terug naar catalogus

CZ-4B DEB

ActiefPO
NORAD 37573·DEBRIS·🇨🇳 China

Gelanceerd May 27, 2008 vanaf Taiyuan Satellite Launch Center

Loading…

Volgende Passages (komende 24 uur)

TLE

VersSource: Space-Track

Epoch: Sep 14, 2026, 21:31 UTC

1 37573U 08026E   26257.89713112  .00000263  00000-0  23346-3 0  9997
2 37573  98.7188 290.0747 0219385 209.6488 274.7908 13.82325308904344

Volg CZ-4B DEB in realtime met AllMySat

Download on the App Store